Wind_Speed
10 10 11 10 10 9 8 7 6 5 5 4 3 4 5 5 5 6 5 8 7 7 6 7 5 3 2 1 1 1 2 3 4 4 5 6 7 7 8 8 7 8 9
9 10 10 10 9 9 8 7 6 5 5 5 5 5 6 6 6 6 6 7 9 9 10 9 8 6 5 5 4 3 3 3 4 4 4 5 6 6 6 6 6 7 7
10 9 10 11 10 8 8 7 7 6 6 5 6 6 6 7 8 8 7 7 8 9 10 11 11 10 9 7 7 7 4 4 5 5 6 5 5 5 5 5 5 5 5
11 10 9 10 10 9 8 8 7 7 6 6 5 5 6 7 8 8 9 9 8 7 9 11 13 12 11 11 9 10 12 10 7 6 6 6 5 5 5 4 4 5 3
13 12 10 10 10 10 9 8 8 8 7 6 6 7 7 8 9 10 10 11 10 11 9 11 13 15 15 14 13 12 14 14 12 11 9 8 8 7 6 5 3 3 4
14 13 12 11 11 11 10 10 10 8 8 7 7 9 10 11 11 11 11 10 10 10 10 10 10 11 15 18 17 15 14 15 17 16 14 12 10 10 8 5 5 5 3
14 14 13 12 13 13 12 11 11 10 9 8 7 10 11 12 12 12 11 10 9 8 7 8 9 9 10 13 18 18 17 16 15 19 16 14 13 12 7 7 5 5 5
15 15 15 14 13 13 14 14 13 11 11 10 7 6 4 6 9 9 8 7 7 6 5 7 7 8 9 9 11 16 19 19 18 17 20 19 19 13 9 9 12 11 11
22 20 18 17 17 16 15 15 15 15 14 10 13 8 2 4 3 4 5 5 4 4 4 4 6 7 7 7 12 14 17 19 20 18 21 23 19 14 12 12 12 10 12
18 20 21 19 18 18 19 17 16 17 15 16 9 15 15 6 3 2 5 4 6 6 7 6 3 4 6 8 9 10 13 15 18 18 16 23 20 16 14 13 12 12 13
15 19 20 21 20 19 20 18 17 17 16 16 16 8 9 11 11 7 3 8 4 4 4 6 7 5 6 6 4 6 8 10 12 14 18 19 19 18 16 10 8 13 13
10 12 14 16 18 19 19 18 17 17 16 15 14 13 11 6 8 7 6 7 7 4 5 4 4 6 6 6 5 6 7 8 9 10 12 11 13 15 8 5 5 10 9
10 10 13 14 17 19 18 16 16 16 16 15 13 13 10 9 9 8 8 8 7 5 3 5 4 3 4 5 5 5 6 7 6 5 6 3 6 7 7 4 5 5 5
7 10 12 13 14 16 14 15 16 18 18 15 13 12 10 11 11 12 8 8 3 6 5 3 2 2 3 2 4 3 3 1 4 4 5 6 6 8 4 4 6 9 11
8 7 8 8 10 11 13 14 16 18 17 17 17 15 12 11 9 9 10 10 6 6 5 2 2 2 2 2 4 1 2 5 4 3 3 4 4 5 7 8 10 12 10
4 4 4 4 5 7 10 14 15 15 16 16 15 12 11 8 6 7 7 7 7 5 2 1 1 1 3 2 1 1 3 3 3 4 6 7 8 9 11 12 10 8 7
3 4 5 5 4 5 6 9 12 13 12 11 10 8 6 6 6 5 6 6 4 4 5 3 3 1 1 1 1 1 2 4 6 7 9 10 11 11 11 7 4 3 5
4 5 5 6 7 8 7 8 8 8 8 7 7 8 7 6 6 5 4 4 4 6 4 4 3 1 1 1 1 1 1 3 2 4 4 5 2 2 4 6 7 8 8
4 5 5 6 7 8 9 8 9 9 7 7 6 7 8 8 8 7 6 6 5 5 4 4 4 3 1 0 0 1 1 1 2 3 3 4 5 7 8 9 9 8 7
2 3 4 5 6 6 7 8 8 8 9 8 8 7 9 9 9 9 7 7 6 6 6 7 5 4 3 2 2 0 0 1 1 3 5 6 8 10 11 12 11 9 10
2 3 3 5 5 6 7 8 9 9 10 11 10 11 9 10 11 9 7 6 6 5 5 5 5 4 4 3 2 0 1 3 3 3 5 5 4 6 7 8 9 10 9
3 3 4 3 3 3 7 10 11 12 12 12 14 14 15 12 11 9 7 7 6 5 6 5 4 5 4 2 1 1 2 3 2 2 6 6 5 4 5 5 9 9 10
3 3 3 4 5 7 9 11 13 15 16 15 16 16 12 11 10 10 9 9 8 7 6 4 4 3 3 2 3 1 1 2 3 4 6 4 3 4 5 7 12 14 15
6 6 7 7 9 9 11 12 16 17 16 13 12 10 9 8 7 7 6 6 6 5 5 5 5 4 4 3 2 1 1 3 4 3 4 3 4 7 7 8 12 6 5
9 10 11 11 11 10 11 14 15 14 13 11 10 9 7 7 7 7 6 7 6 6 5 5 5 4 4 3 4 2 2 2 2 1 3 3 4 10 9 7 5 4 4
12 12 12 12 10 10 11 13 12 11 10 9 8 7 8 6 6 6 5 6 7 6 5 3 2 2 4 1 3 3 3 3 2 3 1 4 5 7 6 3 4 5 6
Wind_Direction
172 175 181 186 192 203 207 214 214 221 229 235 235 232 236 243 251 261 265 278 279 252 238 256 264 283 281 263 147 129 126 117 112 115 106 104 93 81 72 60 51 50 47
181 186 193 199 203 205 211 216 220 227 234 239 246 247 241 242 245 258 265 275 287 266 250 241 244 243 243 228 214 198 180 168 157 144 130 117 106 97 88 76 61 47 45
192 194 202 207 211 216 216 219 226 233 240 243 247 247 244 244 252 262 267 267 275 278 258 253 243 242 237 234 229 219 236 205 197 182 173 160 148 132 118 103 79 50 33
203 204 209 213 211 211 213 218 222 231 235 240 244 244 244 247 254 263 266 268 264 260 271 263 254 247 242 236 232 229 220 226 226 214 197 178 170 155 144 138 130 118 69
211 210 214 214 211 214 217 219 223 226 232 239 244 253 255 256 260 260 262 263 260 264 258 265 266 255 249 243 241 243 233 219 216 210 205 200 190 185 180 177 186 160 145
216 216 221 220 215 216 221 224 227 231 234 244 255 262 260 260 257 260 263 263 257 256 264 259 261 270 262 251 245 245 252 240 218 210 205 199 202 194 196 221 211 186 194
222 222 226 227 224 226 229 229 233 234 242 242 256 267 263 258 254 255 259 259 265 264 258 263 265 262 264 270 252 246 247 254 250 214 203 205 206 209 212 217 226 249 222
228 227 228 231 230 232 234 231 226 233 241 229 238 262 275 260 255 256 251 251 265 266 280 286 271 267 265 257 254 252 252 251 257 236 204 209 208 229 218 226 228 240 272
238 241 242 238 238 236 236 233 229 227 239 234 226 224 199 235 318 233 242 269 270 278 292 289 293 280 277 271 262 264 254 252 254 255 225 211 215 220 218 224 244 262 267
243 247 246 242 236 237 240 236 232 236 231 239 229 230 239 256 232 286 231 272 270 276 283 295 304 302 298 289 289 278 266 256 252 251 249 224 218 218 225 230 251 263 271
247 250 246 242 239 237 243 241 238 230 231 235 235 224 227 239 242 226 247 256 265 267 263 275 288 291 296 291 287 287 270 256 250 259 265 266 224 225 228 238 287 289 286
240 241 241 241 244 243 243 240 238 234 231 233 234 227 218 217 214 210 227 236 247 229 266 287 291 298 297 289 293 293 271 256 254 271 289 290 248 229 199 237 85 70 68
240 237 237 238 242 244 244 240 235 233 229 225 225 223 222 230 232 227 219 251 240 216 251 257 286 312 315 299 290 296 294 263 241 284 320 118 165 139 124 133 186 240 289
244 248 249 246 243 241 240 238 236 241 234 227 216 214 205 221 235 225 212 231 219 217 218 212 294 332 302 318 320 55 355 243 225 215 128 197 211 203 221 280 274 283 286
242 252 258 253 252 252 242 238 235 229 222 215 211 203 207 203 227 235 233 218 236 249 230 138 155 22 352 29 46 78 119 157 192 220 247 256 275 299 296 299 302 301 300
229 233 254 267 268 256 240 230 221 216 217 201 196 194 203 213 224 221 228 226 223 238 191 142 138 302 334 334 43 89 130 172 205 231 252 266 275 282 290 293 294 294 297
219 216 222 239 238 239 223 209 197 190 188 188 182 182 193 199 204 212 223 215 196 198 230 182 197 312 341 357 339 268 239 249 267 266 271 273 275 277 283 283 283 272 281
240 233 221 221 227 229 217 200 195 184 178 176 183 177 188 183 176 185 157 164 168 173 180 155 176 181 130 319 307 311 307 286 284 272 275 269 277 236 227 241 256 270 275
237 237 228 219 218 220 215 207 202 187 173 171 173 169 164 167 163 168 165 159 155 154 151 154 143 163 148 160 7 49 55 14 279 275 283 278 264 261 258 261 266 272 270
214 206 206 205 200 199 200 189 175 166 161 160 163 162 156 164 163 156 153 137 126 113 124 129 134 154 163 170 168 136 285 347 314 307 296 279 274 269 269 266 264 263 260
189 188 176 187 177 172 181 177 173 168 161 149 147 141 143 148 147 148 137 127 125 140 149 151 154 163 175 177 196 341 285 302 292 324 316 298 288 283 280 285 264 273 260
175 169 158 143 151 167 180 174 159 157 146 142 132 127 129 117 107 107 121 136 138 148 144 150 155 183 170 148 150 245 300 311 284 328 334 303 292 287 287 277 265 262 260
182 166 150 155 146 146 155 161 159 156 149 149 144 141 140 137 123 114 114 101 96 122 132 133 163 163 153 158 187 216 287 284 279 306 325 290 296 291 284 290 283 271 271
202 201 180 165 154 143 148 153 148 147 146 147 147 142 140 141 149 155 154 128 106 95 93 100 118 126 118 151 160 180 263 284 287 300 339 282 314 303 298 299 298 299 299
191 181 162 154 146 146 155 157 152 143 143 144 144 140 143 137 151 164 158 146 140 122 112 126 130 142 142 159 181 192 229 268 267 246 320 305 327 316 301 291 290 279 187
186 170 167 170 159 154 166 162 152 148 148 150 146 151 154 148 153 158 157 170 172 170 171 156 161 178 154 153 186 214 235 240 267 266 263 334 326 346 320 292 294 283 275
Height
853 855 857 859 860 862 863 864 865 865 866 866 866 866 866 867 867 868 868 867 867 867 868 868 868 868 868 867 867 866 866 866 866 866 866 865 865 866 866 867 868 867 867
852 854 856 858 859 860 861 863 863 864 864 865 865 864 865 865 866 866 866 866 865 865 865 866 867 867 867 866 866 866 866 866 866 866 866 866 866 866 866 866 867 867 867
850 852 854 856 858 859 860 861 861 862 862 862 862 863 863 864 865 865 864 864 864 862 863 863 864 865 865 865 866 865 865 865 866 865 865 864 864 864 864 864 865 867 868
848 850 852 854 855 857 858 858 859 860 861 861 861 861 862 862 862 862 862 862 861 861 860 860 861 862 863 863 863 864 863 863 863 864 864 865 865 864 864 864 863 862 865
846 848 849 851 853 854 855 856 857 858 859 859 859 860 860 860 860 860 859 859 858 857 857 857 857 858 859 860 861 861 861 862 862 863 863 862 862 862 862 862 862 862 862
843 845 846 848 849 851 852 853 854 856 856 857 858 857 857 857 857 856 856 855 854 853 853 854 855 855 854 856 857 858 859 859 858 859 860 861 862 862 862 863 864 862 863
841 842 844 845 846 847 848 850 852 853 854 854 855 854 853 853 852 852 852 852 852 851 851 851 852 852 853 852 853 854 856 856 856 857 858 859 860 861 861 863 864 866 864
838 839 840 841 842 844 845 846 847 849 850 851 851 852 850 848 848 849 849 849 849 848 848 848 848 849 850 850 850 851 852 853 854 853 853 854 855 857 859 861 861 862 863
831 833 835 837 838 839 840 841 843 844 846 847 848 849 850 848 846 847 846 846 846 846 846 844 846 845 845 846 846 847 848 849 850 851 851 851 853 854 856 857 859 860 859
826 828 829 831 832 833 834 836 838 839 841 842 844 844 844 845 846 847 844 844 844 844 843 844 844 843 843 843 843 843 845 846 847 848 848 848 849 852 853 855 856 857 857
822 823 824 826 827 828 829 831 832 834 835 837 838 839 841 841 843 845 843 841 842 842 842 843 843 842 841 842 841 841 842 843 844 845 846 847 845 848 850 853 855 855 855
819 820 820 821 822 822 824 826 828 829 830 832 833 834 836 837 838 840 841 840 840 841 840 840 841 841 841 841 839 839 840 841 842 844 844 843 843 843 847 850 851 853 853
816 816 816 817 817 818 819 821 822 824 825 827 828 830 831 833 835 836 837 837 838 838 838 838 838 838 838 838 838 838 839 840 841 842 843 840 842 844 846 848 849 850 852
812 811 812 813 813 813 814 816 817 819 821 822 824 826 828 830 832 833 833 835 835 836 837 838 837 836 836 837 838 838 839 839 840 841 841 841 842 843 845 847 847 848 848
807 808 810 810 810 809 811 813 814 815 817 818 820 822 824 826 828 830 831 831 832 830 831 836 837 837 837 837 838 838 838 839 839 841 840 841 842 843 845 846 845 845 846
805 806 808 809 808 807 809 810 811 812 813 815 817 819 822 823 827 828 830 830 830 831 831 835 836 837 837 837 838 838 838 839 839 840 841 841 841 842 842 842 843 844 844
805 805 805 807 807 807 809 810 809 810 812 814 816 818 821 822 824 826 827 827 829 830 830 834 834 835 836 838 838 838 838 838 839 839 839 839 839 839 840 841 842 842 843
803 804 805 805 806 808 809 809 809 810 813 816 816 817 820 820 823 824 825 827 827 828 829 831 833 834 835 836 836 836 836 838 838 837 837 837 837 838 839 840 840 840 840
804 805 805 805 805 806 807 808 809 809 812 815 817 818 815 819 820 823 825 826 826 827 827 829 832 834 834 835 837 837 837 838 838 837 837 837 837 837 837 838 838 838 838
805 804 804 804 803 804 807 807 808 810 811 813 815 817 816 818 820 822 825 825 826 827 828 829 832 833 834 836 837 836 837 838 838 837 836 836 835 835 835 835 835 835 835
805 805 804 805 803 803 806 807 808 810 812 813 815 815 819 820 819 822 824 824 825 827 828 829 831 833 835 835 836 837 837 838 837 836 836 835 835 835 834 833 833 832 832
807 807 806 804 805 805 807 809 808 811 812 814 816 816 820 822 821 822 823 824 826 827 828 830 831 833 834 834 835 837 838 837 836 835 835 834 832 832 832 831 830 830 830
808 808 805 806 806 807 807 809 808 810 810 815 817 818 820 820 821 823 825 827 826 827 828 830 832 833 833 834 835 836 837 838 837 836 834 832 831 831 830 829 827 827 827
807 808 806 805 807 807 810 812 809 811 814 816 817 818 820 821 821 825 828 827 828 829 829 830 832 832 832 833 835 836 837 837 836 835 834 833 831 829 828 827 824 823 823
805 806 806 806 808 809 812 811 810 811 814 817 818 819 821 822 823 825 826 827 828 829 829 830 830 831 832 832 834 835 836 836 834 834 834 834 831 830 827 825 824 823 823
805 806 807 809 810 812 813 811 811 812 816 818 820 821 822 823 823 824 825 827 828 829 829 830 831 832 832 832 833 834 835 835 835 834 834 834 832 831 827 824 823 823 822